EHI
9 10 11 8 5 6 6 5 2 1 1 2 3 6 9 8 5 5 4 2 0 0 0 0 0 0 0 0 0 0 0 0 0 0 0 0 0 0
9 9 9 7 6 5 5 5 4 2 1 2 4 7 7 5 3 4 4 2 0 0 0 0 0 0 0 0 0 0 0 0 0 0 0 0 0 0
8 8 7 7 7 5 4 5 6 5 4 3 5 8 7 5 3 3 3 2 1 0 0 0 0 0 0 0 0 0 0 0 0 0 0 0 0 0
6 6 7 7 6 4 4 5 6 6 6 5 6 8 7 6 5 3 2 2 1 0 0 0 0 0 0 0 0 0 0 0 0 0 0 0 0 0
6 7 7 7 6 4 4 5 5 6 6 6 6 6 5 5 5 3 2 1 1 0 0 0 0 0 0 0 0 0 0 0 0 0 0 0 0 0
7 8 8 6 5 4 3 4 4 5 6 6 5 4 2 3 3 3 3 2 1 0 0 0 0 0 0 0 0 0 0 0 0 0 0 0 0 0
8 8 7 4 3 2 2 2 2 3 5 4 4 3 1 1 2 2 3 2 2 2 1 0 0 0 0 0 0 0 0 0 0 0 0 0 0 0
9 9 6 3 1 1 0 0 0 1 3 3 3 2 1 0 0 1 1 2 3 3 2 1 0 0 0 0 0 0 0 0 0 0 0 0 0 0
9 8 6 3 1 0 0 0 0 0 1 2 2 2 1 0 0 0 0 1 2 3 2 1 0 0 0 0 0 0 0 0 0 0 0 0 0 0
7 7 6 4 1 0 0 0 0 0 0 1 1 1 0 0 0 0 0 0 1 2 2 1 1 0 0 0 0 0 0 0 0 0 0 0 0 0
4 3 3 3 1 0 1 1 1 0 0 0 0 0 0 0 0 0 0 0 0 1 1 0 0 0 0 0 0 0 0 0 0 0 0 0 0 0
2 1 1 1 1 0 1 2 2 1 0 0 0 0 0 0 0 0 0 0 0 0 0 0 0 0 0 0 0 0 0 0 0 0 0 0 0 0
2 2 1 0 0 0 1 2 2 1 0 0 0 0 0 0 0 0 0 0 0 0 0 0 0 0 0 0 0 0 0 0 0 0 0 0 0 0
3 2 1 0 0 0 0 1 1 1 0 0 0 0 0 0 0 0 0 0 0 0 0 0 0 0 0 0 0 0 0 0 0 0 0 0 0 0
2 1 1 0 0 0 0 0 0 0 0 0 0 0 0 0 0 0 0 0 0 0 0 0 0 0 0 0 0 0 0 0 0 0 0 0 0 0
1 0 0 0 0 0 0 0 0 0 0 0 0 0 0 0 0 0 0 0 0 0 0 0 0 0 0 0 0 0 0 0 0 0 0 0 0 0
0 0 0 0 0 0 0 0 0 0 0 0 0 0 0 0 0 0 0 0 0 0 0 0 0 0 0 0 0 0 0 0 0 0 0 0 0 0
0 0 0 0 0 0 0 0 0 0 0 0 0 0 0 0 0 0 0 0 0 0 0 0 0 0 0 0 0 0 0 0 0 0 0 0 0 0
0 0 0 0 0 0 0 0 0 0 0 0 0 0 0 0 0 0 0 0 0 0 0 0 0 0 0 0 0 0 0 0 0 0 0 0 0 0
0 0 0 0 0 0 0 0 0 0 0 0 0 0 0 0 0 0 0 0 0 0 0 0 0 0 0 0 0 0 0 0 0 0 0 0 0 0
0 0 0 0 0 0 0 0 0 0 0 0 0 0 0 0 0 0 0 0 0 0 0 0 0 0 0 0 0 0 0 0 0 0 0 0 0 0
0 0 0 0 0 0 0 0 0 0 0 0 0 0 0 0 0 0 0 0 0 0 0 0 0 0 0 0 0 0 0 0 0 0 0 0 0 0
0 0 0 0 0 0 0 0 0 0 0 0 0 0 0 0 0 0 0 0 0 0 0 0 0 0 0 0 0 0 0 0 0 0 0 0 0 0
Wind_Speed
3 3 3 2 2 1 1 2 2 2 1 1 1 3 3 4 7 6 7 10 11 11 11 11 10 11 11 11 11 11 11 10 10 10 9 9 9 9
2 2 2 2 1 1 1 1 1 2 2 1 1 2 4 6 8 7 8 13 12 12 12 11 11 11 12 12 12 12 12 11 11 10 10 10 9 9
1 2 2 1 1 1 1 1 1 2 3 2 2 2 4 6 5 5 6 6 7 12 12 12 12 13 13 13 12 12 11 11 10 10 9 9 8 8
2 2 1 1 1 1 1 1 1 2 4 4 3 2 3 5 6 5 6 7 7 12 14 14 14 13 13 12 12 11 10 9 9 9 8 7 7 7
0 1 1 1 1 1 1 1 1 2 3 5 4 3 3 4 5 5 6 5 7 10 12 12 13 13 12 11 10 9 8 8 8 7 6 6 6 6
1 1 2 1 0 1 1 1 2 3 4 5 4 4 3 3 4 4 5 3 4 6 7 8 10 11 11 10 9 8 7 6 6 5 5 5 5 4
3 3 4 5 5 3 2 2 2 2 3 4 4 4 3 3 3 3 5 4 3 3 4 4 5 4 4 6 7 7 6 5 4 3 3 3 3 3
3 3 4 5 7 8 9 8 5 3 3 3 3 4 4 3 3 4 5 4 3 2 3 3 4 3 3 3 6 7 5 4 3 2 2 1 1 1
3 3 3 4 5 5 8 9 9 9 6 3 4 4 4 3 4 4 3 3 3 3 3 2 3 3 3 5 9 7 6 5 4 3 2 2 1 2
5 5 5 5 5 5 6 7 7 7 6 5 4 3 3 3 3 4 5 4 3 2 2 2 3 3 4 4 9 9 8 7 6 5 4 4 4 4
6 6 6 6 6 6 7 7 7 6 9 10 8 7 7 6 4 3 3 4 3 2 1 1 2 2 3 3 6 10 9 8 7 7 6 6 6 5
5 6 9 7 6 6 6 6 7 5 5 6 6 5 5 5 5 2 2 3 3 2 1 1 1 1 1 2 3 4 5 7 8 8 8 8 7 3
4 4 4 6 7 7 6 5 6 5 4 5 4 4 4 4 4 3 3 2 3 2 2 1 1 1 1 1 2 3 3 2 3 4 7 9 9 6
5 4 4 6 7 7 5 5 5 3 3 3 4 3 4 4 3 4 5 4 4 4 3 1 1 1 0 0 0 1 1 1 2 2 2 5 6 8
5 8 7 7 6 5 5 4 2 1 2 4 4 4 3 3 4 4 4 4 4 4 4 2 1 1 0 0 0 1 1 1 2 2 1 2 3 3
6 7 6 4 3 4 3 1 0 2 3 4 4 4 3 3 2 2 3 3 3 2 2 2 1 1 0 1 1 1 1 1 1 1 1 2 3 3
5 4 3 3 2 2 2 2 2 2 3 3 3 3 3 3 2 1 1 1 2 2 2 2 2 2 2 1 1 0 0 1 1 1 1 2 3 3
4 4 3 3 3 3 2 2 2 2 2 2 2 3 3 3 2 2 1 1 2 2 2 1 0 0 1 0 0 1 1 1 1 1 2 2 3 3
2 3 3 3 2 2 2 2 2 2 2 2 2 2 2 2 2 2 1 1 1 1 1 1 1 1 1 1 1 3 2 2 1 2 2 2 3 3
2 2 3 2 2 2 2 2 2 2 2 2 2 2 1 1 2 2 1 1 1 1 1 1 1 1 0 1 1 3 5 3 2 2 2 3 3 4
3 3 3 3 2 2 2 2 2 2 2 2 2 1 1 0 1 1 2 2 0 1 1 1 1 2 2 1 2 2 2 5 5 3 3 3 3 3
2 3 2 2 2 2 2 2 2 2 2 2 2 2 1 1 1 1 1 2 2 1 0 1 2 2 2 2 3 3 3 3 5 8 8 7 4 4
2 3 3 3 3 3 3 3 3 2 2 2 2 2 2 1 1 1 1 1 1 1 1 1 1 1 2 3 3 3 4 3 3 3 4 8 12 14
Wind_Direction
230 234 243 251 253 263 231 191 186 204 203 160 115 93 110 108 118 112 109 114 113 110 106 103 101 99 98 96 95 91 87 83 81 79 78 75 72 70
214 228 255 267 267 256 237 229 196 185 186 139 123 127 116 110 112 109 104 107 105 109 108 107 104 101 99 97 93 90 86 83 80 79 77 74 72 68
227 227 231 250 264 281 259 222 180 156 160 143 115 109 112 114 113 111 110 104 102 105 106 105 102 100 98 96 95 92 89 87 83 78 74 71 68 62
223 227 236 213 191 246 251 232 172 164 155 151 140 127 114 122 121 119 119 114 107 107 108 106 105 103 101 99 96 93 90 87 84 80 75 70 66 60
183 200 216 173 206 245 215 179 151 145 136 140 141 135 128 126 119 116 111 109 115 116 112 111 112 109 106 105 102 97 93 89 84 78 73 70 67 61
67 61 55 56 36 220 171 135 128 130 134 139 138 139 136 135 134 135 121 112 114 120 117 121 120 117 116 114 112 107 100 94 87 80 74 68 59 52
81 79 81 82 71 69 80 86 120 139 142 143 146 142 147 158 162 150 131 120 106 126 131 134 134 130 130 126 123 123 120 112 104 95 87 79 63 43
99 93 93 86 83 78 76 71 74 107 131 139 146 149 154 156 146 141 141 146 149 150 140 147 145 142 142 139 147 148 148 145 143 133 123 113 70 357
89 86 83 84 85 89 82 73 62 61 77 121 141 153 153 160 154 150 153 143 143 153 147 143 143 145 148 147 159 167 174 179 181 182 185 201 245 276
68 70 79 71 64 84 89 80 68 56 64 72 94 114 128 144 159 156 148 125 110 121 142 152 151 153 144 148 173 182 191 196 199 204 216 235 253 273
73 67 77 78 63 86 100 98 91 78 70 78 84 96 105 107 110 128 150 154 145 136 103 136 143 145 149 166 188 194 200 207 214 224 233 247 262 281
87 76 69 75 72 83 106 108 104 99 97 93 84 89 101 103 99 103 136 155 143 130 123 113 136 140 163 166 173 186 207 220 224 233 241 249 256 263
104 92 77 75 79 83 95 103 119 122 118 113 109 102 93 85 81 74 70 97 112 107 120 111 93 68 113 145 170 180 191 204 212 232 235 243 249 239
106 103 100 93 90 90 94 105 116 118 126 121 111 103 97 93 88 85 82 78 86 110 117 99 107 135 135 103 162 166 186 198 191 210 224 236 247 243
95 106 114 112 105 99 99 96 95 112 111 105 100 96 95 103 109 104 94 92 92 101 111 99 79 84 3 142 153 180 203 224 203 201 220 235 235 228
108 108 107 98 100 108 112 108 74 72 96 103 109 115 122 132 137 142 148 154 133 121 144 167 175 159 249 293 221 211 175 215 224 193 222 257 258 244
130 133 130 129 139 146 134 121 114 107 101 109 119 127 128 121 113 104 108 134 130 137 158 193 195 201 217 225 254 219 203 251 214 197 237 261 260 252
134 143 151 157 153 145 139 133 123 118 120 123 121 124 130 135 134 134 131 111 112 121 134 143 138 264 283 346 202 263 277 271 268 247 252 267 273 269
149 156 150 150 149 150 149 136 123 109 103 112 117 119 127 132 132 136 144 138 115 110 110 107 82 32 342 306 268 245 250 266 271 266 264 271 272 266
182 166 158 154 149 151 142 128 124 120 125 126 120 120 128 137 141 146 125 83 84 92 144 144 129 120 304 297 280 262 236 230 243 262 273 273 272 271
185 174 161 152 155 147 125 124 130 133 139 133 124 123 125 150 164 144 120 123 210 247 230 149 162 191 224 259 271 264 246 225 228 233 250 268 276 279
179 158 155 154 148 142 137 144 147 144 151 158 140 151 174 205 198 198 169 186 215 242 251 174 193 208 236 261 276 280 273 257 249 253 254 246 245 256
174 165 168 171 164 161 159 174 182 161 159 178 164 174 194 204 219 207 204 230 243 235 252 252 229 237 256 263 277 286 294 291 278 266 263 254 246 249